Fort Benning, AL

3:54 AM CDT on June 29, 2017 (GMT -0500)
Lawson Army Air Field

Weather History for KLSF - November, 2013

Change the Weather History Date:

Saturday, November 2, 2013

  Actual Average Record
Temperature  
Mean Temperature 59 °F -  
Max Temperature 75 °F 72 °F 86 °F (2000)
Min Temperature 44 °F 45 °F 30 °F (2014)
Degree Days  
Heating Degree Days 6    
Growing Degree Days 9 (Base 50)    
Moisture  
Dew Point 49 °F    
Average Humidity 92    
Maximum Humidity 100    
Minimum Humidity 38    
Precipitation  
Precipitation 0.01 in - - ()
Sea Level Pressure  
Sea Level Pressure 29.90 in    
Wind  
Wind Speed 3 mph (SW)    
Max Wind Speed 15 mph    
Max Gust Speed 21 mph    
Visibility 4 miles    
Events Fog    
Averages and records for this station are not official NWS values.
T = Trace of Precipitation, MM = Missing Value Source: NWS Daily Summary

Daily Weather History Graph

Daily Weather History Graph

Search for Another Location

Airport or City:

Trip Planner

Search our weather history database for the weather conditions in past years. The results will help you decide how hot, cold, wet, or windy it might be!

Date:

Astronomy

Nov. 02, 2013 Rise Set
Actual Time 7:58 AM EDT 6:48 PM EDT
Civil Twilight 7:32 AM EDT 7:13 PM EDT
Nautical Twilight 7:03 AM EDT 7:42 PM EDT
Astronomical Twilight 6:34 AM EDT 8:11 PM EDT
Moon 6:57 AM EDT (11/2) 6:18 PM EDT (11/2)
Length of Visible Light 11h 41m
Length of Day
10h 50m
Waning Crescent, 1% of the Moon is Illuminated
Nov 2
Waning Crescent
Nov 3
New
Nov 10
First Quarter
Nov 17
Full
Nov 25
Last Quarter

Hourly Weather History & Observations

Time (EDT) Temp. Windchill Dew Point Humidity Pressure Visibility Wind Dir Wind Speed Gust Speed Precip Events Conditions
12:58 AM 56.3 °F - 55.9 °F 99% 29.86 in 10.0 mi WNW 3.5 mph - N/A   Clear
1:48 AM 53.6 °F - 51.8 °F 94% 29.86 in 6.0 mi Calm Calm - N/A   Clear
1:53 AM 51.8 °F - 51.8 °F 100% 29.86 in 4.0 mi Calm Calm - N/A   Clear
1:58 AM 52.3 °F - 52.2 °F 99% 29.87 in 5.0 mi NNW 1.2 mph - N/A   Clear
2:18 AM 51.8 °F - 51.8 °F 100% 29.86 in 10.0 mi WNW 3.5 mph - N/A   Clear
2:28 AM 51.8 °F - 51.8 °F 100% 29.86 in 5.0 mi WNW 3.5 mph - N/A   Clear
2:33 AM 51.8 °F - 51.8 °F 100% 29.86 in 3.0 mi Variable 2.3 mph - N/A   Clear
2:38 AM 51.8 °F - 51.8 °F 100% 29.86 in 1.8 mi West 2.3 mph - N/A   Clear
2:43 AM 51.8 °F - 51.8 °F 100% 29.86 in 1.5 mi West 3.5 mph - N/A   Clear
2:48 AM 51.8 °F - 51.8 °F 100% 29.86 in 1.8 mi West 3.5 mph - N/A   Clear
2:53 AM 50.0 °F - 50.0 °F 100% 29.86 in 1.5 mi West 3.5 mph - N/A   Clear
2:58 AM 50.0 °F - 50.0 °F 100% 29.87 in 1.8 mi West 2.3 mph - N/A   Clear
3:03 AM 50.0 °F - 50.0 °F 100% 29.86 in 1.0 mi WSW 3.5 mph - N/A   Clear
3:08 AM 50.0 °F - 50.0 °F 100% 29.86 in 0.5 mi WSW 3.5 mph - N/A Fog Fog
3:18 AM 50.0 °F - 50.0 °F 100% 29.86 in 0.8 mi West 2.3 mph - N/A   Clear
3:23 AM 50.0 °F - 50.0 °F 100% 29.86 in 1.5 mi West 2.3 mph - N/A   Clear
3:28 AM 50.0 °F - 50.0 °F 100% 29.86 in 0.8 mi WSW 2.3 mph - N/A   Clear
3:33 AM 50.0 °F - 48.2 °F 94% 29.86 in 0.8 mi Calm Calm - N/A   Clear
3:38 AM 50.0 °F - 50.0 °F 100% 29.86 in 1.0 mi Calm Calm - N/A   Clear
3:43 AM 50.0 °F - 50.0 °F 100% 29.86 in 0.5 mi Calm Calm - N/A Fog Fog
3:58 AM 50.0 °F - 50.0 °F 100% 29.87 in 0.8 mi WSW 2.3 mph - N/A   Clear
4:03 AM 50.0 °F - 50.0 °F 100% 29.86 in 0.5 mi WSW 2.3 mph - N/A Fog Fog
4:13 AM 50.0 °F - 50.0 °F 100% 29.86 in 0.2 mi Calm Calm - N/A Fog Fog
4:33 AM 48.2 °F - 48.2 °F 100% 29.86 in 0.5 mi Calm Calm - N/A Fog Fog
4:58 AM 47.7 °F - 47.5 °F 99% 29.88 in 0.5 mi Calm Calm - N/A Fog Fog
5:48 AM 48.2 °F - 46.4 °F 93% 29.87 in 0.2 mi Calm Calm - N/A Fog Fog
5:53 AM 48.2 °F - 48.2 °F 100% 29.87 in 0.5 mi Calm Calm - N/A Fog Fog
5:58 AM 47.8 °F - 47.8 °F 100% 29.88 in 0.5 mi Calm Calm - N/A Fog Fog
6:08 AM 48.2 °F - 48.2 °F 100% 29.87 in 0.2 mi South 2.3 mph - N/A Fog Fog
6:18 AM 46.4 °F - 46.4 °F 100% 29.87 in 0.5 mi SE 2.3 mph - N/A Fog Fog
6:23 AM 46.4 °F - 46.4 °F 100% 29.87 in 0.2 mi ESE 2.3 mph - N/A Fog Fog
6:28 AM 46.4 °F - 46.4 °F 100% 29.87 in 0.2 mi ESE 2.3 mph - N/A Fog Fog
6:43 AM 46.4 °F - 46.4 °F 100% 29.88 in 0.2 mi Calm Calm - N/A Fog Fog
6:58 AM 46.4 °F - 46.4 °F 100% 29.89 in 0.2 mi ESE 2.3 mph - N/A Fog Fog
7:08 AM 46.4 °F - 46.4 °F 100% 29.89 in 0.5 mi Calm Calm - N/A Fog Fog
7:33 AM 46.4 °F - 46.4 °F 100% 29.90 in 0.8 mi Calm Calm - N/A   Clear
7:38 AM 46.4 °F - 46.4 °F 100% 29.91 in 1.0 mi ESE 1.2 mph - N/A   Clear
7:43 AM 46.4 °F - 46.4 °F 100% 29.91 in 0.8 mi ESE 2.3 mph - N/A   Clear
7:48 AM 46.4 °F - 46.4 °F 100% 29.91 in 0.2 mi SE 2.3 mph - N/A Fog Fog
7:53 AM 44.6 °F - 44.6 °F 100% 29.92 in 0.2 mi SE 2.3 mph - N/A Fog Fog
7:58 AM 44.6 °F 43.1 °F 44.6 °F 100% 29.93 in 0.2 mi ESE 3.5 mph - 0.01 in Fog Fog
8:13 AM 44.6 °F 43.1 °F 44.6 °F 100% 29.92 in 0.2 mi SE 3.5 mph - N/A Fog Fog
8:23 AM 44.6 °F 43.1 °F 44.6 °F 100% 29.93 in 0.2 mi SSE 3.5 mph - N/A Fog Fog
8:33 AM 46.4 °F - 46.4 °F 100% 29.94 in 0.2 mi SE 2.3 mph - N/A Fog Fog
8:48 AM 48.2 °F - 48.2 °F 100% 29.94 in 0.8 mi ESE 2.3 mph - N/A   Clear
8:53 AM 48.2 °F - 48.2 °F 100% 29.94 in 3.0 mi Calm Calm - N/A   Clear
8:58 AM 48.6 °F - 48.6 °F 100% 29.95 in 9.0 mi SE 2.3 mph - N/A   Clear
9:58 AM 54.3 °F - 54.3 °F 100% 29.96 in 10.0 mi SE 2.3 mph - N/A   Clear
10:58 AM 60.8 °F - 58.6 °F 93% 29.97 in 10.0 mi Variable 2.3 mph - N/A   Clear
11:58 AM 66.2 °F - 55.2 °F 68% 29.97 in 10.0 mi SSE 4.6 mph - N/A   Clear
12:58 PM 70.3 °F - 56.5 °F 61% 29.95 in 10.0 mi Variable 6.9 mph - N/A   Clear
1:58 PM 73.0 °F - 52.5 °F 48% 29.92 in 10.0 mi West 9.2 mph - N/A   Clear
2:58 PM 74.7 °F - 50.0 °F 42% 29.90 in 10.0 mi WNW 15.0 mph 20.7 mph N/A   Partly Cloudy
3:58 PM 73.2 °F - 49.5 °F 43% 29.90 in 10.0 mi West 12.7 mph 19.6 mph N/A   Clear
4:58 PM 72.1 °F - 45.5 °F 38% 29.91 in 10.0 mi West 12.7 mph 20.7 mph N/A   Clear
5:58 PM 69.8 °F - 45.0 °F 41% 29.92 in 10.0 mi WNW 10.4 mph - N/A   Clear
6:58 PM 59.2 °F - 48.2 °F 67% 29.95 in 10.0 mi NW 3.5 mph - N/A   Clear
7:58 PM 52.2 °F - 46.2 °F 80% 29.99 in 10.0 mi WNW 4.6 mph - N/A   Clear
8:58 PM 53.8 °F - 44.4 °F 71% 30.02 in 10.0 mi NW 3.5 mph - N/A   Clear
9:58 PM 51.6 °F - 42.3 °F 70% 30.05 in 10.0 mi NW 5.8 mph - N/A   Clear
10:58 PM 47.7 °F - 45.0 °F 90% 30.07 in 10.0 mi Variable 2.3 mph - N/A   Clear
11:58 PM 46.0 °F - 45.7 °F 99% 30.08 in 10.0 mi Calm Calm - N/A   Clear